Location: Derby
(52.9213°N, 1.4761°W)
Time: 19:26:34
(UTC+01:00)

Tiros 1 - Pass Details

Date: 27 May 2025
Orbit: 620 x 651 km, 48.4° (Epoch: 13 June)

Event Time Altitude Azimuth Distance (km) Brightness Sun altitude
Rises 16:04:40 0° 222° (SW) 2,884 11.2 43.3°
Reaches altitude 10° 16:07:14 10° 210° (SSW) 1,981 10.4 42.9°
Maximum altitude 16:11:02 27° 154° (SSE) 1,210 8.8 42.4°
Drops below altitude 10° 16:14:52 10° 97° (E) 1,993 9.4 41.9°
Sets 16:17:27 0° 85° (E) 2,906 10.1 41.5°
